| time (UTC) | temp F | wind direction | speed knots | gust knots | rain 1hr in | rain 24hr in | rain mn in | humidity % | barometer mb |
| 20260503194324 | 48 | 87 | 0.0 | 0.0 | 0.00 | 0.08 | 0.00 | 54 | 1021.8 |
| 20260503193818 | 48 | 87 | 0.0 | 1.7 | 0.00 | 0.08 | 0.00 | 53 | 1021.8 |
| 20260503193320 | 48 | 87 | 0.0 | 1.7 | 0.00 | 0.08 | 0.00 | 54 | 1021.8 |
| 20260503192830 | 48 | 87 | 0.0 | 0.9 | 0.00 | 0.08 | 0.00 | 54 | 1021.8 |
| 20260503192343 | 48 | 87 | 0.0 | 2.6 | 0.00 | 0.08 | 0.00 | 53 | 1021.7 |
| 20260503191836 | 48 | 87 | 0.0 | 3.5 | 0.00 | 0.08 | 0.00 | 53 | 1021.7 |
| 20260503191340 | 49 | 87 | 1.7 | 5.2 | 0.00 | 0.08 | 0.00 | 52 | 1021.6 |
| 20260503190833 | 49 | 82 | 2.6 | 5.2 | 0.00 | 0.08 | 0.00 | 52 | 1021.5 |
| 20260503190319 | 49 | 75 | 3.5 | 7.0 | 0.00 | 0.08 | 0.00 | 52 | 1021.5 |
| 20260503185832 | 49 | 71 | 4.3 | 7.8 | 0.00 | 0.08 | 0.00 | 51 | 1021.3 |
| 20260503185346 | 49 | 64 | 6.1 | 11.3 | 0.00 | 0.08 | 0.00 | 51 | 1021.2 |
| 20260503184833 | 50 | 70 | 7.0 | 11.3 | 0.00 | 0.08 | 0.00 | 51 | 1021.1 |
| 20260503184327 | 49 | 78 | 6.1 | 10.4 | 0.00 | 0.08 | 0.00 | 51 | 1021.1 |
| 20260503183830 | 50 | 96 | 4.3 | 8.7 | 0.00 | 0.08 | 0.00 | 51 | 1021.0 |
| 20260503183345 | 50 | 61 | 5.2 | 7.0 | 0.00 | 0.08 | 0.00 | 51 | 1021.0 |
| 20260503182839 | 50 | 88 | 3.5 | 7.0 | 0.00 | 0.08 | 0.00 | 51 | 1020.9 |
| 20260503182325 | 50 | 105 | 4.3 | 7.8 | 0.00 | 0.08 | 0.00 | 51 | 1020.9 |
| 20260503181834 | 50 | 66 | 3.5 | 7.8 | 0.00 | 0.08 | 0.00 | 51 | 1020.9 |
| 20260503181321 | 50 | 49 | 3.5 | 5.2 | 0.00 | 0.08 | 0.00 | 51 | 1020.9 |
| 20260503180834 | 51 | 84 | 3.5 | 5.2 | 0.00 | 0.08 | 0.00 | 50 | 1020.8 |
| 20260503180327 | 51 | 49 | 3.5 | 7.8 | 0.00 | 0.08 | 0.00 | 49 | 1020.8 |
| 20260503175902 | 51 | 66 | 4.3 | 7.8 | 0.00 | 0.08 | 0.00 | 49 | 1020.8 |
| 20260503175327 | 51 | 69 | 4.3 | 7.0 | 0.00 | 0.08 | 0.00 | 49 | 1020.8 |
| 20260503174834 | 51 | 78 | 3.5 | 8.7 | 0.00 | 0.08 | 0.00 | 48 | 1020.8 |
| 20260503174319 | 52 | 76 | 4.3 | 10.4 | 0.00 | 0.08 | 0.00 | 48 | 1020.8 |
| 20260503173833 | 52 | 62 | 6.1 | 9.6 | 0.00 | 0.08 | 0.00 | 48 | 1020.7 |
| 20260503173318 | 52 | 61 | 6.1 | 10.4 | 0.00 | 0.08 | 0.00 | 47 | 1020.6 |
| 20260503172831 | 52 | 78 | 6.1 | 14.8 | 0.00 | 0.08 | 0.00 | 47 | 1020.6 |
| 20260503171843 | 53 | 71 | 8.7 | 14.8 | 0.00 | 0.08 | 0.00 | 46 | 1020.6 |
| 20260503171338 | 53 | 129 | 7.8 | 12.2 | 0.00 | 0.08 | 0.00 | 45 | 1020.5 |
| 20260503170824 | 53 | 63 | 7.8 | 12.2 | 0.00 | 0.08 | 0.00 | 45 | 1020.5 |
| 20260503170317 | 54 | 82 | 6.1 | 13.0 | 0.00 | 0.08 | 0.00 | 44 | 1020.3 |
| 20260503150817 | 56 | 317 | 7.0 | 13.0 | 0.00 | 0.08 | 0.00 | 40 | 1020.2 |
| 20260503150353 | 56 | 58 | 7.0 | 12.2 | 0.00 | 0.08 | 0.00 | 41 | 1020.1 |
| 20260503131349 | 57 | 30 | 6.1 | 17.4 | 0.00 | 0.08 | 0.00 | 40 | 1020.8 |
| 20260503130841 | 57 | 5 | 7.8 | 13.9 | 0.00 | 0.08 | 0.00 | 39 | 1020.6 |
| 20260503130323 | 57 | 355 | 8.7 | 13.9 | 0.00 | 0.08 | 0.00 | 39 | 1020.8 |
| 20260503110331 | 53 | 293 | 2.6 | 7.8 | 0.00 | 0.08 | 0.00 | 44 | 1021.6 |
| 20260503090324 | 51 | 57 | 12.2 | 16.5 | 0.00 | 0.08 | 0.00 | 45 | 1022.3 |
| 20260503081316 | 50 | 327 | 4.3 | 11.3 | 0.00 | 0.08 | 0.00 | 47 | 1022.5 |
| 20260503080847 | 50 | 65 | 4.3 | 11.3 | 0.00 | 0.08 | 0.00 | 48 | 1022.6 |
| 20260503080340 | 50 | 44 | 5.2 | 12.2 | 0.00 | 0.08 | 0.00 | 49 | 1022.5 |
| 20260503072829 | 48 | 61 | 6.1 | 13.9 | 0.00 | 0.08 | 0.00 | 48 | 1022.6 |
| 20260503072324 | 48 | 94 | 7.8 | 13.9 | 0.00 | 0.08 | 0.00 | 49 | 1022.7 |
| 20260503071859 | 48 | 118 | 5.2 | 13.9 | 0.00 | 0.08 | 0.00 | 50 | 1022.6 |
| 20260503071325 | 48 | 94 | 7.0 | 10.4 | 0.00 | 0.08 | 0.00 | 52 | 1022.7 |
| 20260503070834 | 48 | 75 | 5.2 | 9.6 | 0.00 | 0.08 | 0.00 | 53 | 1022.7 |
| 20260503070318 | 48 | 66 | 4.3 | 10.4 | 0.00 | 0.08 | 0.00 | 55 | 1022.6 |
| 20260503060328 | 45 | 82 | 7.0 | 11.3 | 0.00 | 0.08 | 0.00 | 65 | 1022.4 |
| 20260503054820 | 44 | 81 | 7.8 | 12.2 | 0.00 | 0.08 | 0.00 | 68 | 1022.4 |
| 20260503054324 | 44 | 80 | 7.0 | 12.2 | 0.00 | 0.08 | 0.00 | 68 | 1022.2 |
| 20260503053832 | 43 | 76 | 7.0 | 12.2 | 0.00 | 0.08 | 0.00 | 69 | 1022.2 |
| 20260503053328 | 43 | 74 | 7.0 | 10.4 | 0.00 | 0.08 | 0.00 | 69 | 1022.2 |
| 20260503052843 | 43 | 119 | 6.1 | 11.3 | 0.00 | 0.08 | 0.00 | 70 | 1022.2 |
| 20260503052327 | 43 | 78 | 5.2 | 9.6 | 0.00 | 0.08 | 0.00 | 70 | 1022.2 |
| 20260503051842 | 43 | 58 | 7.0 | 13.9 | 0.00 | 0.08 | 0.00 | 70 | 1022.2 |
| 20260503051349 | 43 | 71 | 6.1 | 13.9 | 0.00 | 0.08 | 0.00 | 70 | 1022.1 |
| 20260503050842 | 43 | 84 | 6.1 | 9.6 | 0.00 | 0.08 | 0.00 | 71 | 1022.0 |
| 20260503050315 | 42 | 73 | 5.2 | 8.7 | 0.00 | 0.08 | 0.00 | 71 | 1022.0 |
| 20260503045829 | 42 | 88 | 5.2 | 7.8 | 0.00 | 0.08 | 0.00 | 71 | 1022.2 |
| 20260503045314 | 43 | 69 | 4.3 | 9.6 | 0.00 | 0.08 | 0.00 | 71 | 1022.1 |
| 20260503044820 | 43 | 90 | 5.2 | 10.4 | 0.00 | 0.08 | 0.00 | 71 | 1021.8 |
| 20260503044334 | 43 | 67 | 6.1 | 10.4 | 0.00 | 0.08 | 0.00 | 72 | 1022.0 |
| 20260503043818 | 42 | 76 | 3.5 | 10.4 | 0.00 | 0.08 | 0.00 | 73 | 1021.9 |
| 20260503043332 | 42 | 82 | 5.2 | 10.4 | 0.00 | 0.08 | 0.00 | 73 | 1021.7 |
| 20260503042905 | 42 | 57 | 5.2 | 8.7 | 0.00 | 0.08 | 0.00 | 73 | 1021.7 |
| 20260503042322 | 42 | 74 | 5.2 | 8.7 | 0.00 | 0.08 | 0.00 | 73 | 1021.5 |
| 20260503041817 | 42 | 53 | 6.1 | 8.7 | 0.00 | 0.08 | 0.00 | 74 | 1021.4 |
| 20260503041350 | 42 | 88 | 4.3 | 7.0 | 0.00 | 0.08 | 0.00 | 74 | 1021.2 |
| 20260503040815 | 42 | 68 | 4.3 | 6.1 | 0.00 | 0.08 | 0.00 | 74 | 1021.2 |
| 20260503040330 | 42 | 69 | 3.5 | 7.0 | 0.00 | 0.08 | 0.00 | 74 | 1021.1 |
| 20260503035823 | 42 | 79 | 4.3 | 8.7 | 0.00 | 0.08 | 0.00 | 74 | 1021.0 |
| 20260503035338 | 42 | 79 | 6.1 | 9.6 | 0.00 | 0.08 | 0.00 | 74 | 1020.9 |
| 20260503034817 | 42 | 61 | 5.2 | 7.8 | 0.00 | 0.08 | 0.00 | 76 | 1021.0 |
| 20260503034331 | 42 | 82 | 5.2 | 8.7 | 0.00 | 0.08 | 0.00 | 76 | 1020.8 |
| 20260503033824 | 42 | 77 | 6.1 | 8.7 | 0.00 | 0.08 | 0.00 | 76 | 1020.8 |
| 20260503033358 | 42 | 82 | 4.3 | 8.7 | 0.00 | 0.08 | 0.00 | 76 | 1020.8 |
| 20260503032820 | 42 | 81 | 4.3 | 11.3 | 0.00 | 0.08 | 0.00 | 76 | 1020.7 |
| 20260503032332 | 42 | 90 | 5.2 | 11.3 | 0.00 | 0.08 | 0.00 | 76 | 1020.8 |
| 20260503031818 | 42 | 107 | 6.1 | 10.4 | 0.00 | 0.08 | 0.00 | 77 | 1020.8 |
| 20260503031333 | 42 | 105 | 6.1 | 10.4 | 0.00 | 0.08 | 0.00 | 77 | 1020.7 |
| 20260503030816 | 42 | 94 | 6.1 | 8.7 | 0.00 | 0.08 | 0.00 | 77 | 1020.7 |
| 20260503030332 | 43 | 85 | 5.2 | 8.7 | 0.00 | 0.08 | 0.00 | 77 | 1020.8 |
| 20260503025818 | 43 | 83 | 4.3 | 8.7 | 0.00 | 0.08 | 0.00 | 77 | 1020.8 |
| 20260503025328 | 43 | 74 | 3.5 | 8.7 | 0.00 | 0.08 | 0.00 | 77 | 1020.8 |
| 20260503024834 | 43 | 110 | 5.2 | 8.7 | 0.00 | 0.08 | 0.00 | 76 | 1020.7 |
| 20260503024320 | 43 | 72 | 5.2 | 9.6 | 0.00 | 0.08 | 0.00 | 76 | 1020.7 |
| 20260503023834 | 43 | 86 | 3.5 | 8.7 | 0.00 | 0.08 | 0.00 | 77 | 1020.7 |
| 20260503023329 | 43 | 71 | 2.6 | 3.5 | 0.00 | 0.08 | 0.00 | 77 | 1020.6 |
| 20260503022815 | 44 | 63 | 1.7 | 2.6 | 0.00 | 0.08 | 0.00 | 77 | 1020.5 |
| 20260503022330 | 44 | 87 | 1.7 | 5.2 | 0.00 | 0.08 | 0.00 | 77 | 1020.5 |
| 20260503021843 | 44 | 103 | 1.7 | 7.8 | 0.00 | 0.08 | 0.00 | 77 | 1020.4 |
| 20260503021327 | 44 | 82 | 4.3 | 7.8 | 0.00 | 0.08 | 0.00 | 78 | 1020.3 |
| 20260503020841 | 43 | 73 | 3.5 | 8.7 | 0.00 | 0.08 | 0.00 | 79 | 1020.4 |
| 20260503020328 | 43 | 116 | 4.3 | 8.7 | 0.00 | 0.08 | 0.00 | 80 | 1020.5 |
| 20260503015843 | 43 | 99 | 0.9 | 6.1 | 0.00 | 0.08 | 0.00 | 80 | 1020.3 |
| 20260503015336 | 43 | 100 | 2.6 | 6.1 | 0.00 | 0.08 | 0.00 | 80 | 1020.4 |
| 20260503014901 | 43 | 82 | 1.7 | 2.6 | 0.00 | 0.08 | 0.00 | 80 | 1020.5 |
| 20260503014355 | 43 | 331 | 0.9 | 2.6 | 0.00 | 0.08 | 0.00 | 80 | 1020.5 |
| 20260503013821 | 43 | 331 | 0.9 | 2.6 | 0.00 | 0.08 | 0.00 | 81 | 1020.5 |
| 20260503013336 | 43 | 333 | 0.9 | 1.7 | 0.00 | 0.08 | 0.00 | 81 | 1020.6 |
| 20260503012839 | 43 | 333 | 0.0 | 2.6 | 0.00 | 0.08 | 0.00 | 81 | 1020.4 |
| 20260503012325 | 43 | 333 | 0.9 | 3.5 | 0.00 | 0.08 | 0.00 | 81 | 1020.5 |
| 20260503011818 | 43 | 323 | 1.7 | 3.5 | 0.00 | 0.08 | 0.00 | 82 | 1020.5 |
| 20260503011322 | 43 | 243 | 0.9 | 1.7 | 0.00 | 0.08 | 0.00 | 82 | 1020.6 |
| 20260503010818 | 43 | 227 | 0.0 | 2.6 | 0.00 | 0.08 | 0.00 | 83 | 1020.4 |
| 20260503010333 | 43 | 227 | 0.0 | 2.6 | 0.00 | 0.08 | 0.00 | 83 | 1020.4 |
| 20260503005819 | 43 | 254 | 0.9 | 3.5 | 0.00 | 0.08 | 0.00 | 83 | 1020.3 |
| 20260503005353 | 43 | 263 | 0.9 | 2.6 | 0.00 | 0.08 | 0.00 | 84 | 1020.6 |
| 20260503004816 | 43 | 262 | 0.0 | 3.5 | 0.00 | 0.08 | 0.00 | 84 | 1020.4 |
| 20260503004351 | 43 | 262 | 0.9 | 3.5 | 0.00 | 0.08 | 0.00 | 83 | 1020.3 |
| 20260503003827 | 43 | 186 | 0.9 | 3.5 | 0.00 | 0.08 | 0.00 | 84 | 1020.4 |
| 20260503003332 | 43 | 198 | 1.7 | 3.5 | 0.00 | 0.08 | 0.00 | 83 | 1020.3 |
| 20260503002827 | 43 | 96 | 0.9 | 2.6 | 0.00 | 0.08 | 0.00 | 83 | 1020.6 |
| 20260503002333 | 43 | 104 | 0.0 | 0.9 | 0.00 | 0.08 | 0.00 | 83 | 1020.4 |
| 20260503001828 | 43 | 104 | 0.0 | 0.0 | 0.00 | 0.08 | 0.00 | 83 | 1020.4 |
| 20260503001337 | 43 | 104 | 0.0 | 2.6 | 0.00 | 0.08 | 0.00 | 83 | 1020.5 |
| 20260503000842 | 43 | 104 | 1.7 | 2.6 | 0.00 | 0.08 | 0.00 | 83 | 1020.5 |
| 20260503000315 | 43 | 135 | 0.0 | 0.9 | 0.00 | 0.08 | 0.00 | 83 | 1020.5 |
| 20260502235829 | 43 | 135 | 0.0 | 1.7 | 0.00 | 0.08 | 0.00 | 83 | 1020.5 |
| 20260502235314 | 43 | 135 | 0.9 | 1.7 | 0.00 | 0.08 | 0.00 | 83 | 1020.6 |
| 20260502234822 | 43 | 135 | 0.9 | 2.6 | 0.00 | 0.08 | 0.00 | 83 | 1020.6 |
| 20260502234336 | 43 | 134 | 0.9 | 2.6 | 0.00 | 0.08 | 0.00 | 83 | 1020.5 |
| 20260502233849 | 43 | 122 | 0.0 | 0.0 | 0.00 | 0.08 | 0.00 | 83 | 1020.7 |
| 20260502233333 | 43 | 122 | 0.0 | 1.7 | 0.00 | 0.08 | 0.00 | 82 | 1020.7 |
| 20260502232827 | 43 | 122 | 0.0 | 1.7 | 0.00 | 0.08 | 0.00 | 82 | 1020.8 |
| 20260502232343 | 43 | 122 | 0.0 | 0.0 | 0.00 | 0.08 | 0.00 | 81 | 1020.7 |
| 20260502231826 | 44 | 122 | 0.0 | 0.0 | 0.00 | 0.08 | 0.00 | 81 | 1020.7 |
| 20260502231321 | 44 | 122 | 0.0 | 0.0 | 0.00 | 0.08 | 0.00 | 80 | 1020.7 |
| 20260502230827 | 44 | 122 | 0.0 | 0.0 | 0.00 | 0.08 | 0.00 | 80 | 1020.9 |
| 20260502230321 | 44 | 122 | 0.0 | 0.9 | 0.00 | 0.08 | 0.00 | 80 | 1020.8 |
| 20260502225827 | 44 | 122 | 0.0 | 0.9 | 0.00 | 0.08 | 0.00 | 80 | 1020.8 |
| 20260502225342 | 44 | 122 | 0.0 | 2.6 | 0.00 | 0.08 | 0.00 | 80 | 1020.8 |
| 20260502224843 | 44 | 122 | 0.9 | 2.6 | 0.00 | 0.08 | 0.00 | 80 | 1020.7 |
| 20260502224315 | 44 | 115 | 1.7 | 2.6 | 0.00 | 0.08 | 0.00 | 80 | 1020.7 |
| 20260502223827 | 44 | 111 | 0.9 | 3.5 | 0.00 | 0.08 | 0.00 | 81 | 1020.9 |
| 20260502223321 | 44 | 111 | 1.7 | 3.5 | 0.00 | 0.08 | 0.00 | 81 | 1021.0 |
| 20260502222826 | 44 | 107 | 0.9 | 2.6 | 0.00 | 0.08 | 0.00 | 82 | 1021.1 |
| 20260502222320 | 44 | 92 | 1.7 | 2.6 | 0.00 | 0.08 | 0.00 | 82 | 1021.1 |
| 20260502221824 | 43 | 92 | 1.7 | 2.6 | 0.00 | 0.08 | 0.00 | 82 | 1021.1 |
| 20260502221319 | 43 | 91 | 0.9 | 2.6 | 0.00 | 0.08 | 0.00 | 82 | 1021.2 |
| 20260502220834 | 43 | 65 | 0.9 | 4.3 | 0.04 | 0.08 | 0.00 | 82 | 1021.2 |
| 20260502220319 | 44 | 74 | 2.6 | 3.5 | 0.04 | 0.08 | 0.00 | 81 | 1021.3 |
| 20260502215833 | 44 | 103 | 1.7 | 5.2 | 0.04 | 0.08 | 0.02 | 81 | 1021.2 |
| 20260502215316 | 44 | 100 | 2.6 | 5.2 | 0.04 | 0.08 | 0.02 | 81 | 1021.2 |
| 20260502214852 | 44 | 65 | 3.5 | 4.3 | 0.08 | 0.08 | 0.02 | 80 | 1021.2 |
| 20260502214336 | 44 | 87 | 1.7 | 3.5 | 0.08 | 0.08 | 0.02 | 80 | 1021.2 |
| 20260502213823 | 45 | 82 | 2.6 | 5.2 | 0.08 | 0.08 | 0.02 | 80 | 1021.3 |
| 20260502213339 | 45 | 94 | 2.6 | 6.1 | 0.08 | 0.08 | 0.02 | 79 | 1021.3 |
| 20260502212833 | 45 | 98 | 4.3 | 6.1 | 0.08 | 0.08 | 0.02 | 79 | 1021.3 |
| 20260502212339 | 45 | 105 | 4.3 | 6.1 | 0.08 | 0.08 | 0.02 | 78 | 1021.3 |
| 20260502211832 | 45 | 101 | 2.6 | 7.8 | 0.08 | 0.08 | 0.02 | 78 | 1021.3 |
| 20260502211328 | 45 | 101 | 4.3 | 7.8 | 0.08 | 0.08 | 0.02 | 78 | 1021.3 |
| 20260502210842 | 45 | 79 | 5.2 | 8.7 | 0.04 | 0.04 | 0.01 | 78 | 1021.4 |
| 20260502210326 | 46 | 63 | 4.3 | 9.6 | 0.04 | 0.04 | 0.01 | 78 | 1021.5 |
| 20260502205820 | 46 | 69 | 6.1 | 11.3 | 0.04 | 0.04 | 0.01 | 78 | 1021.6 |
| 20260502205356 | 47 | 65 | 7.8 | 16.5 | 0.04 | 0.04 | 0.01 | 77 | 1021.7 |
| 20260502204840 | 48 | 77 | 7.8 | 13.0 | 0.00 | 0.00 | 0.00 | 74 | 1021.9 |
| 20260502204327 | 48 | 38 | 2.6 | 5.2 | 0.00 | 0.00 | 0.00 | 72 | 1021.4 |
| 20260502203841 | 47 | 71 | 3.5 | 7.8 | 0.00 | 0.00 | 0.00 | 73 | 1021.3 |
| 20260502203327 | 47 | 76 | 3.5 | 7.0 | 0.00 | 0.00 | 0.00 | 74 | 1021.3 |
| 20260502202823 | 47 | 79 | 1.7 | 3.5 | 0.00 | 0.00 | 0.00 | 75 | 1021.5 |
| 20260502202326 | 47 | 351 | 1.7 | 4.3 | 0.00 | 0.00 | 0.00 | 74 | 1021.5 |
| 20260502201815 | 48 | 294 | 1.7 | 5.2 | 0.00 | 0.00 | 0.00 | 73 | 1021.3 |
| 20260502201331 | 48 | 59 | 3.5 | 7.8 | 0.00 | 0.00 | 0.00 | 72 | 1021.2 |
| 20260502200836 | 48 | 78 | 3.5 | 7.8 | 0.00 | 0.00 | 0.00 | 72 | 1021.2 |
| 20260502200327 | 48 | 91 | 4.3 | 7.0 | 0.00 | 0.00 | 0.00 | 72 | 1021.2 |
| 20260502195841 | 48 | 109 | 2.6 | 7.8 | 0.00 | 0.00 | 0.00 | 72 | 1021.3 |
| 20260502195325 | 48 | 97 | 3.5 | 7.8 | 0.00 | 0.00 | 0.00 | 72 | 1021.3 |
| 20260502194832 | 48 | 83 | 4.3 | 6.1 | 0.00 | 0.00 | 0.00 | 71 | 1021.1 |